Airport Information

KTIW - Tacoma Narrows Airport

KTIW 191753Z 00000KT 10SM SCT034 OVC045 13/08 A3021 RMK AO2 RAE00 SLP229 P0000 60000 T01280078 10128 20106 58004


  • General Information

  • Coordinates: N 47°16'4"/ W 122°34'41"
  • Location: N/A
  • Surveyed Elevation: 294 MSL

Operations

Flow Name Active Runways Conditions

Green background denotes normal operations.


Common Frequencies

Callsign Frequency Position Name

More at the Document Center


Charts